Location: Warner Observatory
(35.1353°N, 89.5455°W)
Time: 21:56:35
(UTC-06:00)

Amateur Radio Satellites - All Passes

Search period start: 30 January 2015 21:26
Search period end: 31 January 2015 21:26
Location: Warner Observatory, 35.1353°N, 89.5455°W

Satellite Date Start Highest point End Downlink Frequencies (MHz)
Time Altitude Azimuth
TIGRISAT 30 Jan 21:30:09 21:31:45 12° 90° (E) 21:33:35 435.000
GOMX 1 30 Jan 21:33:54 21:36:49 15° 272° (W) 21:39:32 467.674
DOVE 4 30 Jan 21:37:30 21:41:01 18° 270° (W) 21:44:27 437.250
VELOX 1 30 Jan 21:40:15 21:44:33 55° 75° (ENE) 21:48:56 145.980
CUBEBUG 1 30 Jan 21:44:32 21:47:54 23° 70° (ENE) 21:51:23 437.445
QB50P1 30 Jan 21:46:03 21:46:23 10° 89° (E) 21:47:02 145.935-145.965
ISS 30 Jan 21:49:06 21:51:39 20° 329° (NNW) 21:54:11 145.825
UKube-1 30 Jan 21:54:15 21:58:12 34° 262° (W) 22:02:08 .
POLYITAN 1 30 Jan 21:59:55 22:02:34 16° 92° (E) 22:05:22 437.675
HUMSAT D 30 Jan 22:01:39 22:05:58 65° 259° (W) 22:10:18 437.325/437.525
ZACube-1 30 Jan 22:12:26 22:16:24 27° 265° (W) 22:20:19 437.345
CUBEBUG 2 30 Jan 22:12:50 22:16:24 20° 267° (W) 22:19:53 437.445
AIST 1 30 Jan 22:14:41 22:19:04 83° 82° (E) 22:23:27
DELFI C3 30 Jan 22:16:05 22:17:59 13° 269° (W) 22:19:40 145.870
DX 1 30 Jan 22:18:13 22:21:16 18° 267° (W) 22:24:11 434.975-435.025
POPSAT HIP 1 30 Jan 22:18:14 22:21:52 27° 96° (E) 22:25:31 437.405
DUCHIFAT 1 30 Jan 22:19:50 22:23:30 27° 96° (E) 22:27:11 145.980
UNISAT 6 30 Jan 22:21:43 22:26:02 53° 99° (E) 22:30:16 437.425
FUNcube-1 30 Jan 22:24:21 22:27:53 21° 267° (W) 22:31:18 145.935
AISAT 30 Jan 22:50:22 22:53:54 22° 266° (W) 22:57:21 437.250
NANOSAT C BR1 30 Jan 22:54:21 22:58:39 75° 101° (ESE) 23:02:55 145.865
ESTCUBE 1 30 Jan 22:57:47 23:02:04 44° 261° (W) 23:06:22 437.505/2401.250
ANTELSAT 30 Jan 22:57:52 23:02:12 56° 285° (WNW) 23:06:25 437.575/2403.000
SPROUT 30 Jan 22:58:30 23:02:25 36° 73° (ENE) 23:06:24 437.525
50 SAT 30 Jan 22:59:15 23:02:08 18° 267° (W) 23:04:52 437.505
TIGRISAT 30 Jan 23:04:38 23:08:54 47° 286° (WNW) 23:13:02 435.000
QB50P2 30 Jan 23:09:43 23:14:01 69° 284° (WNW) 23:18:15 145.880/145.840
QB50P1 30 Jan 23:18:29 23:22:43 55° 285° (WNW) 23:26:53 145.935-145.965
VELOX 1 30 Jan 23:20:15 23:21:34 11° 270° (W) 23:22:36 145.980
CUBEBUG 1 30 Jan 23:20:32 23:24:12 26° 265° (W) 23:27:50 437.445
BUGSAT 1 30 Jan 23:21:01 23:25:18 68° 284° (WNW) 23:29:32 437.445
BEESAT 30 Jan 23:24:48 23:25:30 10° 65° (ENE) 23:26:30 436.000
ITUPSAT 1 30 Jan 23:28:59 23:30:28 12° 65° (ENE) 23:32:14 437.325
TISAT 1 30 Jan 23:29:14 23:33:29 85° 75° (ENE) 23:37:46 437.305
POLYITAN 1 30 Jan 23:34:43 23:38:40 35° 287° (WNW) 23:42:32 437.675
POPSAT HIP 1 30 Jan 23:54:18 23:57:39 22° 290° (WNW) 00:00:54 437.405
DUCHIFAT 1 30 Jan 23:55:56 23:59:14 21° 290° (WNW) 00:02:24 145.980
UNISAT 6 31 Jan 00:00:37 00:02:24 12° 293° (WNW) 00:03:57 437.425
GONETS M04 31 Jan 00:16:27 00:24:21 41° 89° (E) 00:32:22
BEESAT 2 31 Jan 00:31:03 00:33:29 16° 110° (ESE) 00:36:07 435.950
SPROUT 31 Jan 00:35:55 00:38:42 16° 268° (W) 00:41:17 437.525
Oscar 19 31 Jan 00:39:14 00:43:18 24° 94° (E) 00:47:29 437.125/150
BEESAT 3 31 Jan 00:42:20 00:45:39 25° 112° (ESE) 00:49:06 437.485
SWISSCUBE 31 Jan 00:42:38 00:47:23 83° 76° (ENE) 00:52:09 437.505
KKS-1 31 Jan 00:51:20 00:54:04 17° 68° (ENE) 00:56:58 437.445
O/OREOS (USA 219) 31 Jan 00:51:58 00:55:23 21° 60° (ENE) 00:58:55 437.305
BEESAT 31 Jan 00:58:05 01:02:50 73° 258° (WSW) 01:07:36 436.000
ITAMSAT 1 31 Jan 01:01:05 01:03:02 12° 90° (E) 01:05:20 435.822/435.867
ITUPSAT 1 31 Jan 01:03:10 01:07:54 66° 259° (W) 01:12:39 437.325
Gurwin Techsat 1B 31 Jan 02:06:31 02:11:30 41° 98° (E) 02:16:31 435.225
BEESAT 2 31 Jan 02:07:35 02:11:26 37° 304° (NW) 02:15:19 435.950
RS-15 31 Jan 02:09:51 02:13:05 12° 101° (E) 02:17:29 29.354- 29.394
AIST 2 31 Jan 02:12:42 02:16:55 86° 298° (WNW) 02:21:14 435.215
GONETS M04 31 Jan 02:13:10 02:21:14 38° 286° (WNW) 02:29:08
M-CUBED/EXP-1 PRIME 31 Jan 02:15:13 02:19:14 60° 72° (ENE) 02:22:56 437.505
STARS 31 Jan 02:15:17 02:19:43 85° 254° (WSW) 02:24:13 437.465
Oscar 19 31 Jan 02:18:07 02:22:44 33° 289° (WNW) 02:27:15 437.125/150
DANDE 31 Jan 02:18:20 02:22:39 16° 82° (E) 02:27:40 436.750
BEESAT 3 31 Jan 02:20:19 02:23:45 25° 308° (NW) 02:27:10 437.485
KKS-1 31 Jan 02:26:13 02:30:26 40° 262° (W) 02:34:40 437.445
O/OREOS (USA 219) 31 Jan 02:30:47 02:34:55 33° 255° (WSW) 02:38:59 437.305
CUSAT 1 31 Jan 02:35:07 02:41:25 27° 87° (E) 02:48:11 437.405
HORYU 2 31 Jan 02:35:21 02:38:42 21° 94° (E) 02:42:08 437.375
ITAMSAT 1 31 Jan 02:37:53 02:43:05 65° 286° (WNW) 02:48:15 435.822/435.867
ISS 31 Jan 02:43:02 02:44:59 15° 28° (NNE) 02:47:00 145.825
MOZHAYETS 4 31 Jan 02:46:13 02:46:38 10° 66° (ENE) 02:47:19
AUBIESAT-1 31 Jan 02:46:51 02:50:51 58° 254° (WSW) 02:54:31 437.475
PCSat 31 Jan 03:04:11 03:09:13 42° 111° (ESE) 03:14:19 145.827
AO-7 31 Jan 03:20:50 03:28:09 35° 97° (E) 03:35:36 29.400- 29.500
Gurwin Techsat 1B 31 Jan 03:47:12 03:51:15 22° 292° (WNW) 03:55:08 435.225
DANDE 31 Jan 03:56:56 04:05:06 85° 96° (E) 04:13:50 436.750
HORYU 2 31 Jan 04:11:33 04:15:24 29° 289° (WNW) 04:19:10 437.375
RS-15 31 Jan 04:13:07 04:23:59 75° 115° (ESE) 04:34:55 29.354- 29.394
CUSAT 1 31 Jan 04:15:50 04:23:58 64° 282° (WNW) 04:32:18 437.405
ISS 31 Jan 04:18:31 04:21:48 65° 224° (SW) 04:25:03 145.825
MOZHAYETS 4 31 Jan 04:18:48 04:23:22 69° 259° (W) 04:27:56
JAS-2 31 Jan 04:28:59 04:34:48 60° 101° (E) 04:41:24 435.910
YUBILEINY 31 Jan 04:31:43 04:33:10 11° 59° (ENE) 04:35:28 435.215
CUBESAT XI-V 31 Jan 04:42:24 04:44:34 14° 67° (ENE) 04:46:58 437.345
PCSat 31 Jan 04:48:24 04:52:49 24° 307° (NW) 04:57:10 145.827
Cubesat XI-IV 31 Jan 04:58:50 05:00:50 12° 89° (E) 05:03:12 437.490
AO-7 31 Jan 05:13:15 05:21:08 47° 294° (WNW) 05:28:52 29.400- 29.500
CUTE-I 31 Jan 05:16:48 05:20:31 20° 93° (E) 05:24:26 437.470
PRISM 31 Jan 05:28:46 05:32:51 68° 76° (ENE) 05:36:56 437.425
STRAND 1 31 Jan 05:35:01 05:39:42 39° 72° (ENE) 05:44:27 437.568
DANDE 31 Jan 05:43:33 05:49:41 21° 296° (WNW) 05:55:32 436.750
CUSAT 1 31 Jan 06:05:29 06:08:45 12° 301° (WNW) 06:11:18 437.405
JAS-2 31 Jan 06:15:39 06:19:40 18° 292° (WNW) 06:23:41 435.910
CUBESAT XI-V 31 Jan 06:17:10 06:21:39 51° 261° (W) 06:26:09 437.345
YUBILEINY 31 Jan 06:23:17 06:32:03 69° 81° (E) 06:40:50 435.215
RS-15 31 Jan 06:28:04 06:37:31 31° 319° (NW) 06:46:48 29.354- 29.394
Cubesat XI-IV 31 Jan 06:36:10 06:41:31 68° 286° (WNW) 06:46:51 437.490
PHONESAT 2.4 31 Jan 06:42:55 06:45:32 20° 145° (SE) 06:48:14 2401.200-2431.200
CUTE-I 31 Jan 06:55:45 07:00:51 45° 288° (WNW) 07:05:55 437.470
VERMONT LUNAR 31 Jan 07:08:42 07:12:05 56° 153° (SSE) 07:15:31 437.305
STRAND 1 31 Jan 07:15:16 07:19:05 20° 267° (W) 07:22:45 437.568
SEEDS 31 Jan 07:52:55 07:54:39 13° 91° (E) 07:56:37 437.485
GOMX 1 31 Jan 07:59:39 08:03:48 23° 92° (E) 08:07:53 467.674
DOVE 4 31 Jan 08:02:29 08:05:34 17° 90° (E) 08:08:46 437.250
SO-50 31 Jan 08:10:54 08:12:10 11° 108° (ESE) 08:13:46 436.795
BRITE-PL 31 Jan 08:14:25 08:19:52 50° 98° (E) 08:25:02 437.365/2234.400
COMPASS 1 31 Jan 08:15:16 08:18:16 20° 93° (E) 08:21:22 437.405
PHONESAT 2.4 31 Jan 08:20:15 08:23:50 81° 337° (NNW) 08:27:28 2401.200-2431.200
YUBILEINY 31 Jan 08:21:50 08:28:11 22° 276° (W) 08:34:05 435.215
CANX-2 31 Jan 08:35:14 08:39:24 58° 99° (E) 08:43:32 2200.000
HO-68 31 Jan 08:39:09 08:46:14 62° 102° (ESE) 08:53:20 435.675
AAUSAT CUBESAT 2 31 Jan 08:39:17 08:43:02 33° 97° (E) 08:46:49 437.432
VERMONT LUNAR 31 Jan 08:46:58 08:50:17 40° 348° (NNW) 08:53:36 437.305
RS-15 31 Jan 08:51:11 08:55:12 12° 353° (N) 08:59:05 29.354- 29.394
CUTE 1.7 + AOD 2 31 Jan 08:59:01 09:03:15 78° 285° (WNW) 09:07:27 437.475
UWE-3 31 Jan 09:06:18 09:09:21 19° 92° (E) 09:12:28 435.000/436.395/437.385
Oscar 11 31 Jan 09:08:25 09:12:20 34° 97° (E) 09:16:17 145.826/435.025
CINEMA 3 31 Jan 09:09:16 09:13:51 46° 98° (E) 09:18:14 145.822/145.860
POPSAT HIP 1 31 Jan 09:09:31 09:11:46 15° 68° (ENE) 09:14:13 437.405
DUCHIFAT 1 31 Jan 09:10:47 09:13:05 15° 68° (ENE) 09:15:34 145.980
UNISAT 6 31 Jan 09:17:30 09:21:43 34° 73° (ENE) 09:25:58 437.425
SEEDS 31 Jan 09:26:47 09:30:46 42° 286° (WNW) 09:34:41 437.485
VELOX 1 31 Jan 09:35:55 09:38:07 14° 91° (E) 09:40:33 145.980
GOMX 1 31 Jan 09:37:08 09:42:02 36° 289° (WNW) 09:46:38 467.674
DOVE 4 31 Jan 09:38:46 09:43:42 46° 286° (WNW) 09:48:18 437.250
NANOSAT C BR1 31 Jan 09:44:08 09:48:02 36° 73° (ENE) 09:52:00 145.865
UKube-1 31 Jan 09:44:49 09:49:03 49° 100° (E) 09:53:17 .
SO-50 31 Jan 09:47:44 09:52:13 62° 302° (WNW) 09:56:52 436.795
HUMSAT D 31 Jan 09:50:07 09:53:35 25° 95° (E) 09:57:04 437.325/437.525
COMPASS 1 31 Jan 09:50:29 09:54:01 27° 288° (WNW) 09:57:29 437.405
ANTELSAT 31 Jan 09:53:06 09:57:50 86° 77° (ENE) 10:02:33 437.575/2403.000
BRITE-PL 31 Jan 09:53:56 09:57:57 20° 293° (WNW) 10:01:40 437.365/2234.400
DELFI C3 31 Jan 09:56:58 10:01:00 70° 284° (WNW) 10:05:01 145.870
PHONESAT 2.4 31 Jan 09:59:20 10:02:41 35° 355° (N) 10:06:03 2401.200-2431.200
QB50P2 31 Jan 09:59:27 10:03:39 57° 75° (ENE) 10:07:54 145.880/145.840
TIGRISAT 31 Jan 09:59:30 10:04:13 83° 258° (WSW) 10:08:57 435.000
ZACube-1 31 Jan 10:04:04 10:08:29 76° 102° (ESE) 10:12:44 437.345
CUBEBUG 2 31 Jan 10:06:24 10:10:54 68° 284° (WNW) 10:15:13 437.445
QB50P1 31 Jan 10:07:55 10:12:10 72° 76° (ENE) 10:16:27 145.935-145.965
BUGSAT 1 31 Jan 10:08:04 10:12:02 52° 75° (ENE) 10:16:06 437.445
DX 1 31 Jan 10:08:13 10:12:38 82° 284° (WNW) 10:17:01 434.975-435.025
CANX-2 31 Jan 10:14:18 10:14:55 10° 293° (WNW) 10:15:15 2200.000
FUNcube-1 31 Jan 10:15:16 10:19:40 80° 281° (W) 10:23:55 145.935
AAUSAT CUBESAT 2 31 Jan 10:15:49 10:18:30 16° 290° (WNW) 10:21:00 437.432
POLYITAN 1 31 Jan 10:24:13 10:28:30 71° 259° (W) 10:32:51 437.675
VERMONT LUNAR 31 Jan 10:25:37 10:28:49 33° 5° (N) 10:32:04 437.305
HO-68 31 Jan 10:28:03 10:33:30 23° 297° (WNW) 10:38:42 435.675
BEESAT 2 31 Jan 10:30:10 10:34:12 47° 57° (ENE) 10:38:12 435.950
GONETS M04 31 Jan 10:32:12 10:36:47 16° 63° (ENE) 10:41:57
AIST 2 31 Jan 10:38:11 10:41:41 24° 52° (NE) 10:45:12 435.215
50 SAT 31 Jan 10:40:28 10:44:31 80° 104° (ESE) 10:48:30 437.505
AIST 1 31 Jan 10:40:56 10:45:05 57° 94° (E) 10:49:16
BEESAT 3 31 Jan 10:41:52 10:46:01 76° 60° (ENE) 10:50:06 437.485
UWE-3 31 Jan 10:42:03 10:46:01 31° 288° (WNW) 10:49:49 435.000/436.395/437.385
POPSAT HIP 1 31 Jan 10:43:18 10:47:21 41° 262° (W) 10:51:27 437.405
AISAT 31 Jan 10:43:27 10:48:00 90° 102° (ESE) 10:52:30 437.250
DUCHIFAT 1 31 Jan 10:44:36 10:48:38 40° 262° (W) 10:52:41 145.980
Oscar 11 31 Jan 10:45:26 10:48:18 17° 291° (WNW) 10:51:00 145.826/435.025
CINEMA 3 31 Jan 10:47:48 10:50:40 16° 293° (WNW) 10:53:17 145.822/145.860
ESTCUBE 1 31 Jan 10:53:38 10:58:01 47° 99° (E) 11:02:24 437.505/2401.250
UNISAT 6 31 Jan 10:55:01 10:58:37 20° 267° (W) 11:02:02 437.425
RS-15 31 Jan 11:06:38 11:14:04 20° 29° (NNE) 11:22:10 29.354- 29.394
VELOX 1 31 Jan 11:10:42 11:15:00 45° 286° (WNW) 11:19:16 145.980
CUBEBUG 1 31 Jan 11:11:52 11:16:20 73° 101° (ESE) 11:20:46 437.445
TISAT 1 31 Jan 11:18:34 11:21:21 17° 93° (E) 11:24:18 437.305
NANOSAT C BR1 31 Jan 11:21:25 11:24:05 16° 268° (W) 11:26:36 145.865
UKube-1 31 Jan 11:22:44 11:24:51 13° 293° (WNW) 11:26:44 .
HUMSAT D 31 Jan 11:26:00 11:29:17 22° 289° (WNW) 11:32:25 437.325/437.525
PHONESAT 2.4 31 Jan 11:38:13 11:41:41 42° 12° (NNE) 11:45:11 2401.200-2431.200
Oscar 19 31 Jan 11:53:03 11:57:16 27° 69° (ENE) 12:01:36 437.125/150
PCSat 31 Jan 11:55:59 11:59:41 19° 50° (NE) 12:03:32 145.827
VERMONT LUNAR 31 Jan 12:03:42 12:07:12 80° 19° (NNE) 12:10:43 437.305
BEESAT 2 31 Jan 12:10:12 12:12:03 12° 251° (WSW) 12:13:41 435.950
ITAMSAT 1 31 Jan 12:16:02 12:18:44 15° 65° (ENE) 12:21:42 435.822/435.867
AIST 2 31 Jan 12:16:38 12:20:17 27° 248° (WSW) 12:23:47 435.215
SPROUT 31 Jan 12:24:04 12:28:25 71° 283° (WNW) 12:32:44 437.525
GONETS M04 31 Jan 12:26:18 12:35:02 89° 275° (W) 12:43:45
ESTCUBE 1 31 Jan 12:32:01 12:34:33 14° 292° (WNW) 12:36:52 437.505/2401.250
SWISSCUBE 31 Jan 12:46:50 12:50:52 27° 96° (E) 12:54:59 437.505
TISAT 1 31 Jan 12:53:26 12:57:18 32° 288° (WNW) 13:01:06 437.305
BEESAT 31 Jan 13:01:53 13:06:17 37° 98° (E) 13:10:43 436.000
ITUPSAT 1 31 Jan 13:07:13 13:11:43 41° 98° (E) 13:16:16 437.325
PHONESAT 2.4 31 Jan 13:16:47 13:20:21 56° 208° (SSW) 13:23:56 2401.200-2431.200
RS-15 31 Jan 13:18:05 13:29:25 65° 56° (NE) 13:41:17 29.354- 29.394
Gurwin Techsat 1B 31 Jan 13:24:24 13:29:27 48° 73° (ENE) 13:34:34 435.225
Oscar 19 31 Jan 13:31:53 13:36:31 32° 264° (W) 13:41:06 437.125/150
HORYU 2 31 Jan 13:31:53 13:34:16 15° 68° (ENE) 13:36:51 437.375
PCSat 31 Jan 13:38:13 13:43:32 57° 248° (WSW) 13:48:49 145.827
VERMONT LUNAR 31 Jan 13:42:27 13:45:03 19° 215° (SW) 13:47:37 437.305
ITAMSAT 1 31 Jan 13:52:43 13:57:49 59° 260° (W) 14:02:57 435.822/435.867
STARS 31 Jan 14:09:17 14:12:45 23° 95° (E) 14:16:18 437.465
AO-7 31 Jan 14:16:24 14:23:45 37° 64° (ENE) 14:31:16 29.400- 29.500
KKS-1 31 Jan 14:20:29 14:24:50 49° 99° (E) 14:29:10 437.445
SWISSCUBE 31 Jan 14:24:41 14:28:41 26° 290° (WNW) 14:32:36 437.505
GONETS M04 31 Jan 14:26:23 14:30:51 14° 279° (W) 14:34:39
BEESAT 31 Jan 14:40:25 14:43:56 20° 291° (WNW) 14:47:17 436.000
JAS-2 31 Jan 14:41:33 14:44:19 15° 67° (ENE) 14:47:16 435.910
ITUPSAT 1 31 Jan 14:46:03 14:49:22 18° 292° (WNW) 14:52:30 437.325
DANDE 31 Jan 14:47:30 14:53:29 54° 76° (ENE) 14:57:52 436.750
O/OREOS (USA 219) 31 Jan 15:00:22 15:04:32 40° 105° (ESE) 15:08:48 437.305
CUSAT 1 31 Jan 15:03:35 15:09:13 82° 263° (W) 15:13:19 437.405
Gurwin Techsat 1B 31 Jan 15:06:06 15:09:45 18° 268° (W) 15:13:10 435.225
HORYU 2 31 Jan 15:06:17 15:10:37 46° 261° (W) 15:14:56 437.375
RS-15 31 Jan 15:31:26 15:41:20 33° 253° (WSW) 15:51:10 29.354- 29.394
M-CUBED/EXP-1 PRIME 31 Jan 15:34:53 15:38:16 84° 106° (ESE) 15:41:47 437.505
STARS 31 Jan 15:45:28 15:49:14 27° 289° (WNW) 15:52:54 437.465
KKS-1 31 Jan 15:58:48 16:01:07 14° 293° (WNW) 16:03:13 437.445
AUBIESAT-1 31 Jan 16:06:10 16:09:20 37° 290° (WNW) 16:12:36 437.475
AO-7 31 Jan 16:08:28 16:16:25 46° 260° (W) 16:24:19 29.400- 29.500
MOZHAYETS 4 31 Jan 16:17:29 16:21:40 35° 97° (E) 16:25:52
Cubesat XI-IV 31 Jan 16:17:34 16:20:40 16° 66° (ENE) 16:24:01 437.490
JAS-2 31 Jan 16:23:41 16:29:08 56° 259° (W) 16:34:16 435.910
JUGNU 31 Jan 16:32:36 16:36:06 16° 173° (S) 16:39:39 437.505
DANDE 31 Jan 16:33:16 16:35:52 13° 280° (W) 16:37:54 436.750
CUTE-I 31 Jan 16:35:38 16:39:46 24° 68° (ENE) 16:44:03 437.470
O/OREOS (USA 219) 31 Jan 16:41:14 16:44:13 17° 302° (WNW) 16:47:02 437.305
PRISM 31 Jan 17:16:50 17:18:25 12° 91° (E) 17:20:16 437.425
SRMSAT 31 Jan 17:18:19 17:21:14 14° 169° (S) 17:24:13 437.500
YUBILEINY 31 Jan 17:29:08 17:32:39 14° 80° (E) 17:36:52 435.215
STRAND 1 31 Jan 17:49:47 17:53:02 17° 92° (E) 17:56:29 437.568
Cubesat XI-IV 31 Jan 17:55:09 18:00:22 56° 260° (W) 18:05:37 437.490
MOZHAYETS 4 31 Jan 17:55:25 17:58:42 19° 290° (WNW) 18:01:48
CUTE-I 31 Jan 18:14:46 18:19:40 37° 263° (W) 18:24:34 437.470
CUBESAT XI-V 31 Jan 18:17:02 18:21:37 50° 99° (E) 18:26:11 437.345
JUGNU 31 Jan 18:20:37 18:24:25 17° 183° (S) 18:28:13 437.505
SO-50 31 Jan 18:22:10 18:26:58 49° 57° (ENE) 18:31:44 436.795
PRISM 31 Jan 18:50:16 18:54:14 43° 286° (WNW) 18:58:11 437.425
HO-68 31 Jan 19:04:44 19:10:53 33° 66° (ENE) 19:17:10 435.675
GOMX 1 31 Jan 19:04:46 19:08:14 19° 67° (ENE) 19:12:00 467.674
DOVE 4 31 Jan 19:05:39 19:07:59 14° 65° (ENE) 19:10:39 437.250
SRMSAT 31 Jan 19:05:46 19:09:43 18° 179° (S) 19:13:40 437.500
YUBILEINY 31 Jan 19:19:43 19:28:24 87° 96° (E) 19:37:10 435.215
ISS 31 Jan 19:20:42 19:22:54 17° 129° (SE) 19:25:12 145.825
BRITE-PL 31 Jan 19:21:38 19:26:19 39° 72° (ENE) 19:31:23 437.365/2234.400
CANX-2 31 Jan 19:25:32 19:29:10 28° 72° (ENE) 19:32:52 2200.000
STRAND 1 31 Jan 19:27:35 19:32:31 47° 288° (WNW) 19:37:26 437.568
AAUSAT CUBESAT 2 31 Jan 19:28:30 19:31:04 16° 70° (ENE) 19:33:47 437.432
CUTE 1.7 + AOD 2 31 Jan 19:48:45 19:52:52 48° 75° (ENE) 19:57:00 437.475
CUBESAT XI-V 31 Jan 19:56:02 19:58:41 15° 292° (WNW) 20:01:08 437.345
Oscar 11 31 Jan 20:00:57 20:03:59 19° 70° (ENE) 20:07:09 145.826/435.025
UWE-3 31 Jan 20:01:44 20:03:37 13° 67° (ENE) 20:05:45 435.000/436.395/437.385
SO-50 31 Jan 20:03:57 20:07:11 17° 250° (WSW) 20:10:13 436.795
CINEMA 3 31 Jan 20:07:34 20:11:53 32° 72° (ENE) 20:16:22 145.822/145.860
JUGNU 31 Jan 20:10:30 20:12:44 12° 193° (SSW) 20:14:53 437.505
SEEDS 31 Jan 20:15:24 20:19:40 87° 72° (ENE) 20:23:56 437.485
UKube-1 31 Jan 20:37:09 20:40:49 28° 71° (ENE) 20:44:34 .
COMPASS 1 31 Jan 20:38:05 20:42:16 60° 260° (W) 20:46:27 437.405
DOVE 4 31 Jan 20:40:10 20:45:10 67° 260° (W) 20:50:27 437.250
HUMSAT D 31 Jan 20:40:32 20:42:37 14° 68° (ENE) 20:44:55 437.325/437.525
GOMX 1 31 Jan 20:41:04 20:45:57 47° 262° (W) 20:51:08 467.674
DELFI C3 31 Jan 20:42:02 20:45:54 44° 75° (ENE) 20:49:48 145.870
HO-68 31 Jan 20:51:47 20:58:29 41° 262° (W) 21:05:08 435.675
AIST 1 31 Jan 20:54:03 20:54:59 11° 70° (ENE) 20:56:12
SRMSAT 31 Jan 20:54:50 20:58:12 15° 189° (S) 21:01:31 437.500
ISS 31 Jan 20:56:09 20:59:13 35° 323° (NW) 21:02:16 145.825
ZACube-1 31 Jan 20:56:42 21:01:00 41° 74° (ENE) 21:05:21 437.345
DX 1 31 Jan 21:00:38 21:04:53 56° 74° (ENE) 21:09:10 434.975-435.025
CUBEBUG 2 31 Jan 21:00:48 21:05:31 68° 76° (ENE) 21:10:17 437.445
BRITE-PL 31 Jan 21:01:06 21:05:02 22° 269° (W) 21:09:02 437.365/2234.400
CANX-2 31 Jan 21:01:52 21:05:09 20° 266° (W) 21:08:17 2200.000
AAUSAT CUBESAT 2 31 Jan 21:02:39 21:06:31 34° 263° (W) 21:10:20 437.432
FUNcube-1 31 Jan 21:07:31 21:11:59 54° 75° (ENE) 21:16:30 145.935
